STARLINK-1685 (46540 NORAD) Tracking and Keplerian Element Data

This shows tracking and keplerian element data for the satellite.

Feedback or suggestion? Click here.




ElementValue
Catalog46540
NameSTARLINK-1685
Epoch Orbit957
Epoch Day336.25001157
Epoch Year2020
RAAN167.7543
Inclination53.0005
Eccentricity0.0008618
Argument of Perigee300.3497
Mean Anonmoly290.2011
Mean Motion15.62734755
Decay Rate-1.75E-06
L11 46540U 20070J 20336.25001157 -.00000175 00000-0 40240-5 0 9992
L22 46540 53.0005 167.7543 0008618 300.3497 290.2011 15.62734755 9577

Live tracking and technical data element details for STARLINK-1685 (NORAD 46540). STARLINK-1685 can be tracked NOW for your location showing map with azimuth and elevation plus other details from your city location.

Track the satellite on the map from your city or location and see movement details for azimuth, elevation, latitude, longitude, range, height, and movement on the map or in text.







IsCatalogInMostPopularTable: catalog: 46540, numindb: 15
Update: records affected: 1



GetName: 46540 STARLINK-1685

Hit Count: updated at: Wed, 02 Dec 2020 06:55:27 GMT